Weather History for KSDL - January, 2013

Change the Weather History Date:

Wednesday, January 9, 2013

  Actual Average Record
Temperature  
Mean Temperature 56 °F -  
Max Temperature 72 °F 63 °F 75 °F (2004)
Min Temperature 39 °F 42 °F 35 °F (1997)
Degree Days  
Heating Degree Days 10    
Growing Degree Days 6 (Base 50)    
Moisture  
Dew Point 27 °F    
Average Humidity 38    
Maximum Humidity 63    
Minimum Humidity 16    
Precipitation  
Precipitation 0.00 in - - ()
Sea Level Pressure  
Sea Level Pressure 30.07 in    
Wind  
Wind Speed 2 mph (WNW)    
Max Wind Speed 5 mph    
Max Gust Speed -    
Visibility 10 miles    
Events      
Averages and records for this station are not official NWS values.
T = Trace of Precipitation, MM = Missing Value Source: NWS Daily Summary

Daily Weather History Graph

Daily Weather History Graph

Search for Another Location

Airport or City:

Trip Planner

Search our weather history database for the weather conditions in past years. The results will help you decide how hot, cold, wet, or windy it might be!

Date:

Astronomy

Jan. 09, 2013 Rise Set
Actual Time 7:32 AM MST 5:37 PM MST
Civil Twilight 7:05 AM MST 6:04 PM MST
Nautical Twilight 6:34 AM MST 6:35 PM MST
Astronomical Twilight 6:04 AM MST 7:05 PM MST
Moon 5:15 AM MST (1/9) 3:43 PM MST (1/9)
Length of Visible Light 10h 58m
Length of Day
10h 04m
Waning Crescent, 6% of the Moon is Illuminated
Jan 9
Waning Crescent
Jan 11
New
Jan 18
First Quarter
Jan 26
Full
Feb 3
Last Quarter

Hourly Weather History & Observations

Time (MST) Temp. Windchill Dew Point Humidity Pressure Visibility Wind Dir Wind Speed Gust Speed Precip Events Conditions
12:53 AM 46.0 °F 44.8 °F 27.0 °F 47% 30.09 in 10.0 mi NNW 3.5 mph - N/A   Clear
1:53 AM 44.1 °F 42.5 °F 27.0 °F 51% 30.09 in 10.0 mi WSW 3.5 mph - N/A   Clear
2:53 AM 42.1 °F - 27.0 °F 55% 30.08 in 10.0 mi Calm Calm - N/A   Clear
3:53 AM 39.9 °F - 28.0 °F 63% 30.09 in 10.0 mi Calm Calm - N/A   Clear
4:53 AM 42.1 °F - 27.0 °F 55% 30.09 in 10.0 mi Calm Calm - N/A   Clear
5:53 AM 42.1 °F - 28.0 °F 58% 30.12 in 10.0 mi Calm Calm - N/A   Clear
6:53 AM 41.0 °F 39.0 °F 28.0 °F 60% 30.15 in 10.0 mi WSW 3.5 mph - N/A   Clear
7:53 AM 44.1 °F - 26.1 °F 49% 30.16 in 10.0 mi Calm Calm - N/A   Clear
8:53 AM 48.0 °F - 26.1 °F 42% 30.18 in 10.0 mi Calm Calm - N/A   Clear
9:53 AM 52.0 °F - 28.0 °F 40% 30.19 in 10.0 mi Calm Calm - N/A   Clear
10:53 AM 59.0 °F - 28.0 °F 31% 30.17 in 10.0 mi Calm Calm - N/A   Clear
11:53 AM 64.0 °F - 27.0 °F 25% 30.13 in 10.0 mi Calm Calm - N/A   Clear
12:53 PM 68.0 °F - 26.1 °F 21% 30.09 in 10.0 mi SW 4.6 mph - N/A   Clear
1:53 PM 69.1 °F - 23.0 °F 18% 30.06 in 10.0 mi Calm Calm - N/A   Clear
2:53 PM 70.0 °F - 24.1 °F 18% 30.05 in 10.0 mi WNW 3.5 mph - N/A   Clear
3:53 PM 72.0 °F - 23.0 °F 16% 30.03 in 10.0 mi Calm Calm - N/A   Clear
4:53 PM 70.0 °F - 24.1 °F 18% 30.01 in 10.0 mi Calm Calm - N/A   Clear
5:53 PM 66.0 °F - 26.1 °F 22% 30.01 in 10.0 mi Calm Calm - N/A   Clear
6:53 PM 62.1 °F - 26.1 °F 25% 30.01 in 10.0 mi Calm Calm - N/A   Clear
7:53 PM 59.0 °F - 28.0 °F 31% 30.00 in 10.0 mi North 4.6 mph - N/A   Clear
8:53 PM 55.0 °F - 28.9 °F 37% 29.99 in 9.0 mi NNE 3.5 mph - N/A   Clear
9:53 PM 54.0 °F - 28.0 °F 37% 29.98 in 10.0 mi Calm Calm - N/A   Clear
10:53 PM 50.0 °F - 30.0 °F 46% 29.98 in 10.0 mi Calm Calm - N/A   Clear
11:53 PM 48.0 °F - 30.0 °F 50% 29.98 in 10.0 mi Calm Calm - N/A   Clear